Location: Borotín
(49.5055°N, 14.6142°E)
Time: 07:48:25
(UTC+00:00)

USA 305 - Pass Details

Date: 27 May 2022
Orbit: 549 x 553 km, 54.0° (Epoch: 14 June)

Event Time Altitude Azimuth Distance (km) Brightness Sun altitude
Exits shadow 00:58:13 13° 258° (WSW) 1,624 4.8 -14.4°
Maximum altitude 01:01:49 66° 340° (NNW) 604 3.1 -14.1°
Drops below altitude 10° 01:05:57 10° 63° (ENE) 1,828 6.4 -13.8°
Sets 01:08:12 0° 67° (ENE) 2,723 7.3 -13.6°
